Time,TemperatureF,DewpointF,PressureIn,WindDirection,WindDirectionDegrees,WindSpeedMPH,WindSpeedGustMPH,Humidity,HourlyPrecipIn,Conditions,Clouds,dailyrainin,SoftwareType,DateUTC
2013-04-18 00:03:00,44.0,34.0,30.29,SSE,158,0.0,0.0,68,0.00,,,0.00,,2013-04-18 04:03:00,
2013-04-18 00:13:00,44.0,34.0,30.29,SSE,158,0.0,0.0,68,0.00,,,0.00,,2013-04-18 04:13:00,
2013-04-18 00:23:00,44.0,34.0,30.31,SSE,158,0.0,0.0,69,0.00,,,0.00,,2013-04-18 04:23:00,
2013-04-18 00:33:00,44.0,35.0,30.30,SSE,158,0.0,0.0,70,0.00,,,0.00,,2013-04-18 04:33:00,
2013-04-18 00:43:00,43.0,34.0,30.32,SSE,158,0.0,0.0,71,0.00,,,0.00,,2013-04-18 04:43:00,
2013-04-18 00:53:00,43.0,34.0,30.32,SSE,158,0.0,0.0,71,0.00,,,0.00,,2013-04-18 04:53:00,
2013-04-18 01:02:00,43.0,34.0,30.32,SSE,158,0.0,0.0,71,0.00,,,0.00,,2013-04-18 05:02:00,
2013-04-18 01:12:00,43.0,35.0,30.34,SSE,158,0.0,0.0,72,0.00,,,0.00,,2013-04-18 05:12:00,
2013-04-18 01:22:00,43.0,35.0,30.34,SSE,158,0.0,0.0,72,0.00,,,0.00,,2013-04-18 05:22:00,
2013-04-18 01:33:00,43.0,35.0,30.33,SSE,158,0.0,0.0,72,0.00,,,0.00,,2013-04-18 05:33:00,
2013-04-18 01:42:00,43.0,35.0,30.32,SSE,158,0.0,0.0,73,0.00,,,0.00,,2013-04-18 05:42:00,
2013-04-18 01:52:00,43.0,35.0,30.32,SSE,158,0.0,0.0,73,0.00,,,0.00,,2013-04-18 05:52:00,
2013-04-18 02:02:00,43.0,35.0,30.32,SSE,158,0.0,0.0,73,0.00,,,0.00,,2013-04-18 06:02:00,
2013-04-18 02:12:00,43.0,35.0,30.32,SSE,158,0.0,0.0,74,0.00,,,0.00,,2013-04-18 06:12:00,
2013-04-18 02:22:00,43.0,35.0,30.32,SSE,158,0.0,0.0,74,0.00,,,0.00,,2013-04-18 06:22:00,
2013-04-18 02:32:00,42.0,34.0,30.32,SSE,158,0.0,0.0,74,0.00,,,0.00,,2013-04-18 06:32:00,
2013-04-18 02:42:00,43.0,35.0,30.31,SSE,158,0.0,0.0,74,0.00,,,0.00,,2013-04-18 06:42:00,
2013-04-18 02:52:00,43.0,35.0,30.31,SSE,158,0.0,0.0,74,0.00,,,0.00,,2013-04-18 06:52:00,
2013-04-18 03:02:00,43.0,35.0,30.30,SSE,158,0.0,0.0,74,0.00,,,0.00,,2013-04-18 07:02:00,
2013-04-18 03:12:00,42.0,35.0,30.31,SSE,158,0.0,0.0,76,0.00,,,0.00,,2013-04-18 07:12:00,
2013-04-18 03:22:00,42.0,35.0,30.31,SSE,158,0.0,0.0,76,0.00,,,0.00,,2013-04-18 07:22:00,
2013-04-18 03:32:00,41.0,34.0,30.32,SSE,158,0.0,0.0,76,0.00,,,0.00,,2013-04-18 07:32:00,
2013-04-18 03:42:00,41.0,34.0,30.34,SSE,158,0.0,0.0,77,0.00,,,0.00,,2013-04-18 07:42:00,
2013-04-18 03:53:00,41.0,34.0,30.34,SSE,158,0.0,0.0,77,0.00,,,0.00,,2013-04-18 07:53:00,
2013-04-18 04:02:00,41.0,34.0,30.34,SSE,158,0.0,0.0,77,0.00,,,0.00,,2013-04-18 08:02:00,
2013-04-18 04:12:00,41.0,34.0,30.35,SSE,158,0.0,0.0,77,0.00,,,0.00,,2013-04-18 08:12:00,
2013-04-18 04:22:00,41.0,34.0,30.35,SSE,158,0.0,0.0,77,0.00,,,0.00,,2013-04-18 08:22:00,
2013-04-18 04:32:00,40.0,33.0,30.34,SSE,158,0.0,0.0,77,0.00,,,0.00,,2013-04-18 08:32:00,
2013-04-18 04:42:00,40.0,33.0,30.34,SSE,158,0.0,0.0,77,0.00,,,0.00,,2013-04-18 08:42:00,
2013-04-18 04:52:00,40.0,33.0,30.34,SSE,158,0.0,0.0,77,0.00,,,0.00,,2013-04-18 08:52:00,
2013-04-18 05:02:00,41.0,34.0,30.34,SSE,158,0.0,0.0,77,0.00,,,0.00,,2013-04-18 09:02:00,
2013-04-18 05:12:00,41.0,34.0,30.34,SSE,158,0.0,0.0,77,0.00,,,0.00,,2013-04-18 09:12:00,
2013-04-18 05:22:00,41.0,34.0,30.34,SSE,158,0.0,0.0,77,0.00,,,0.00,,2013-04-18 09:22:00,
2013-04-18 05:33:00,41.0,34.0,30.34,SSE,158,0.0,0.0,77,0.00,,,0.00,,2013-04-18 09:33:00,
2013-04-18 05:43:00,41.0,34.0,30.35,SSE,158,0.0,0.0,77,0.00,,,0.00,,2013-04-18 09:43:00,
2013-04-18 05:53:00,41.0,34.0,30.35,SSE,158,0.0,0.0,77,0.00,,,0.00,,2013-04-18 09:53:00,
2013-04-18 06:03:00,41.0,34.0,30.35,SSE,158,0.0,0.0,76,0.00,,,0.00,,2013-04-18 10:03:00,
2013-04-18 06:12:00,41.0,34.0,30.35,SSE,158,0.0,0.0,76,0.00,,,0.00,,2013-04-18 10:12:00,
2013-04-18 06:23:00,41.0,34.0,30.34,SSE,158,0.0,0.0,76,0.00,,,0.00,,2013-04-18 10:23:00,
2013-04-18 06:33:00,41.0,34.0,30.34,SSE,158,0.0,0.0,75,0.00,,,0.00,,2013-04-18 10:33:00,
2013-04-18 06:42:00,41.0,34.0,30.34,SSE,158,0.0,0.0,75,0.00,,,0.00,,2013-04-18 10:42:00,
2013-04-18 06:52:00,41.0,34.0,30.34,SSE,158,0.0,0.0,75,0.00,,,0.00,,2013-04-18 10:52:00,
2013-04-18 07:02:00,42.0,34.0,30.35,SE,135,0.0,0.0,73,0.00,,,0.00,,2013-04-18 11:02:00,
2013-04-18 07:12:00,43.0,35.0,30.35,SE,135,0.0,0.0,73,0.00,,,0.00,,2013-04-18 11:12:00,
2013-04-18 07:22:00,43.0,35.0,30.35,SE,135,0.0,0.0,73,0.00,,,0.00,,2013-04-18 11:22:00,
2013-04-18 07:32:00,44.0,35.0,30.36,SE,135,0.0,2.0,71,0.00,,,0.00,,2013-04-18 11:32:00,
2013-04-18 07:42:00,44.0,35.0,30.36,SE,135,0.0,2.0,71,0.00,,,0.00,,2013-04-18 11:42:00,
2013-04-18 07:52:00,44.0,34.0,30.37,SE,135,0.0,0.0,69,0.00,,,0.00,,2013-04-18 11:52:00,
2013-04-18 08:02:00,46.0,36.0,30.37,SE,135,0.0,0.0,68,0.00,,,0.00,,2013-04-18 12:02:00,
2013-04-18 08:12:00,47.0,37.0,30.37,SSE,158,0.0,0.0,67,0.00,,,0.00,,2013-04-18 12:12:00,
2013-04-18 08:22:00,47.0,37.0,30.37,SSE,158,0.0,0.0,67,0.00,,,0.00,,2013-04-18 12:22:00,
2013-04-18 08:32:00,49.0,37.0,30.37,SSE,158,0.0,0.0,64,0.00,,,0.00,,2013-04-18 12:32:00,
2013-04-18 08:42:00,49.0,37.0,30.37,SSE,158,0.0,0.0,64,0.00,,,0.00,,2013-04-18 12:42:00,
2013-04-18 08:52:00,50.0,38.0,30.37,SSE,158,0.0,7.0,62,0.00,,,0.00,,2013-04-18 12:52:00,
2013-04-18 09:03:00,51.0,38.0,30.37,SE,135,5.0,5.0,60,0.00,,,0.00,,2013-04-18 13:03:00,
2013-04-18 09:12:00,52.0,38.0,30.37,ESE,113,5.0,5.0,58,0.00,,,0.00,,2013-04-18 13:12:00,
2013-04-18 09:22:00,52.0,38.0,30.37,ESE,113,5.0,5.0,58,0.00,,,0.00,,2013-04-18 13:22:00,
2013-04-18 09:32:00,53.0,36.0,30.37,SSE,148,5.0,8.0,53,0.00,,,0.00,,2013-04-18 13:32:00,
2013-04-18 09:42:00,54.0,36.0,30.36,SSE,151,7.0,8.0,51,0.00,,,0.00,,2013-04-18 13:42:00,
2013-04-18 09:52:00,54.0,36.0,30.36,SSE,151,7.0,8.0,51,0.00,,,0.00,,2013-04-18 13:52:00,
2013-04-18 10:03:00,55.0,37.0,30.36,SSE,158,6.0,7.0,50,0.00,,,0.00,,2013-04-18 14:03:00,
2013-04-18 10:12:00,56.0,37.0,30.36,SSE,158,7.0,9.0,49,0.00,,,0.00,,2013-04-18 14:12:00,
2013-04-18 10:22:00,56.0,37.0,30.36,SSE,158,7.0,9.0,49,0.00,,,0.00,,2013-04-18 14:22:00,
2013-04-18 10:33:00,57.0,36.0,30.36,SE,135,6.0,7.0,46,0.00,,,0.00,,2013-04-18 14:33:00,
2013-04-18 10:43:00,58.0,37.0,30.36,South,179,4.0,9.0,45,0.00,,,0.00,,2013-04-18 14:43:00,
2013-04-18 10:52:00,58.0,37.0,30.36,South,179,4.0,9.0,45,0.00,,,0.00,,2013-04-18 14:52:00,
2013-04-18 11:03:00,59.0,37.0,30.36,SE,135,10.0,11.0,43,0.00,,,0.00,,2013-04-18 15:03:00,
2013-04-18 11:12:00,59.0,37.0,30.36,SE,135,10.0,11.0,43,0.00,,,0.00,,2013-04-18 15:12:00,
2013-04-18 11:22:00,60.0,37.0,30.36,SE,135,6.0,6.0,42,0.00,,,0.00,,2013-04-18 15:22:00,
2013-04-18 11:33:00,61.0,38.0,30.36,SE,135,6.0,6.0,42,0.00,,,0.00,,2013-04-18 15:33:00,
2013-04-18 11:43:00,62.0,38.0,30.36,SSE,152,5.0,7.0,41,0.00,,,0.00,,2013-04-18 15:43:00,
2013-04-18 11:52:00,62.0,38.0,30.36,SSE,152,5.0,7.0,41,0.00,,,0.00,,2013-04-18 15:52:00,
2013-04-18 12:03:00,63.0,39.0,30.35,SSE,158,2.0,15.0,41,0.00,,,0.00,,2013-04-18 16:03:00,
2013-04-18 12:13:00,64.0,38.0,30.35,SSE,151,7.0,9.0,38,0.00,,,0.00,,2013-04-18 16:13:00,
2013-04-18 12:23:00,64.0,38.0,30.35,SSE,151,7.0,9.0,38,0.00,,,0.00,,2013-04-18 16:23:00,
2013-04-18 12:33:00,66.0,38.0,30.34,SSE,158,7.0,9.0,35,0.00,,,0.00,,2013-04-18 16:33:00,
2013-04-18 12:43:00,65.0,37.0,30.34,ESE,113,6.0,9.0,36,0.00,,,0.00,,2013-04-18 16:43:00,
2013-04-18 12:52:00,65.0,37.0,30.34,ESE,113,6.0,9.0,36,0.00,,,0.00,,2013-04-18 16:52:00,
2013-04-18 13:03:00,65.0,37.0,30.33,SSE,150,4.0,8.0,35,0.00,,,0.00,,2013-04-18 17:03:00,
2013-04-18 13:12:00,66.0,38.0,30.32,SSE,158,9.0,9.0,35,0.00,,,0.00,,2013-04-18 17:12:00,
2013-04-18 13:22:00,66.0,38.0,30.32,SSE,158,9.0,9.0,35,0.00,,,0.00,,2013-04-18 17:22:00,
2013-04-18 13:33:00,67.0,37.0,30.31,SE,135,6.0,8.0,33,0.00,,,0.00,,2013-04-18 17:33:00,
2013-04-18 13:42:00,67.0,36.0,30.31,SE,135,5.0,8.0,32,0.00,,,0.00,,2013-04-18 17:42:00,
2013-04-18 13:52:00,67.0,36.0,30.31,SE,135,5.0,8.0,32,0.00,,,0.00,,2013-04-18 17:52:00,
2013-04-18 14:03:00,69.0,37.0,30.30,SE,145,5.0,10.0,31,0.00,,,0.00,,2013-04-18 18:03:00,
2013-04-18 14:12:00,66.0,35.0,30.30,SSE,150,7.0,9.0,32,0.00,,,0.00,,2013-04-18 18:12:00,
2013-04-18 14:23:00,66.0,35.0,30.30,SSE,150,7.0,9.0,32,0.00,,,0.00,,2013-04-18 18:23:00,
2013-04-18 14:32:00,65.0,34.0,30.30,SSE,155,7.0,8.0,32,0.00,,,0.00,,2013-04-18 18:32:00,
2013-04-18 14:42:00,66.0,35.0,30.30,SSE,149,5.0,8.0,32,0.00,,,0.00,,2013-04-18 18:42:00,
2013-04-18 14:52:00,66.0,35.0,30.30,SSE,149,5.0,8.0,32,0.00,,,0.00,,2013-04-18 18:52:00,
2013-04-18 15:03:00,69.0,37.0,30.30,SE,135,9.0,9.0,31,0.00,,,0.00,,2013-04-18 19:03:00,
2013-04-18 15:12:00,69.0,37.0,30.30,SE,135,9.0,9.0,31,0.00,,,0.00,,2013-04-18 19:12:00,
2013-04-18 15:22:00,67.0,36.0,30.30,SSE,158,6.0,9.0,32,0.00,,,0.00,,2013-04-18 19:22:00,
2013-04-18 15:32:00,66.0,34.0,30.29,SE,144,7.0,10.0,31,0.00,,,0.00,,2013-04-18 19:32:00,
2013-04-18 15:42:00,66.0,34.0,30.29,SE,144,7.0,10.0,31,0.00,,,0.00,,2013-04-18 19:42:00,
2013-04-18 15:52:00,64.0,33.0,30.29,SW,234,4.0,9.0,31,0.00,,,0.00,,2013-04-18 19:52:00,
2013-04-18 16:02:00,65.0,34.0,30.28,SE,146,7.0,10.0,31,0.00,,,0.00,,2013-04-18 20:02:00,
2013-04-18 16:12:00,62.0,30.0,30.28,South,190,8.0,12.0,30,0.00,,,0.00,,2013-04-18 20:12:00,
2013-04-18 16:22:00,62.0,30.0,30.28,South,190,8.0,12.0,30,0.00,,,0.00,,2013-04-18 20:22:00,
2013-04-18 16:32:00,60.0,31.0,30.27,SE,135,5.0,10.0,33,0.00,,,0.00,,2013-04-18 20:32:00,
2013-04-18 16:42:00,62.0,32.0,30.27,SSE,158,11.0,11.0,32,0.00,,,0.00,,2013-04-18 20:42:00,
2013-04-18 16:52:00,62.0,32.0,30.27,SSE,158,11.0,11.0,32,0.00,,,0.00,,2013-04-18 20:52:00,
2013-04-18 17:02:00,59.0,31.0,30.26,SSE,147,4.0,10.0,35,0.00,,,0.00,,2013-04-18 21:02:00,
2013-04-18 17:12:00,59.0,32.0,30.25,SSE,158,3.0,8.0,36,0.00,,,0.00,,2013-04-18 21:12:00,
2013-04-18 17:22:00,59.0,32.0,30.25,SSE,158,3.0,8.0,36,0.00,,,0.00,,2013-04-18 21:22:00,
2013-04-18 17:33:00,59.0,33.0,30.24,South,180,0.0,8.0,37,0.00,,,0.00,,2013-04-18 21:33:00,
2013-04-18 17:43:00,59.0,33.0,30.25,SSE,150,7.0,7.0,38,0.00,,,0.00,,2013-04-18 21:43:00,
2013-04-18 17:52:00,59.0,33.0,30.25,SSE,150,7.0,7.0,38,0.00,,,0.00,,2013-04-18 21:52:00,
2013-04-18 18:03:00,57.0,34.0,30.25,SE,145,7.0,7.0,42,0.00,,,0.00,,2013-04-18 22:03:00,
2013-04-18 18:13:00,56.0,34.0,30.25,SE,135,0.0,7.0,43,0.00,,,0.00,,2013-04-18 22:13:00,
2013-04-18 18:23:00,56.0,34.0,30.25,SE,135,0.0,7.0,43,0.00,,,0.00,,2013-04-18 22:23:00,
2013-04-18 18:33:00,54.0,36.0,30.24,SSE,149,5.0,8.0,51,0.00,,,0.00,,2013-04-18 22:33:00,
2013-04-18 18:42:00,54.0,38.0,30.24,SE,145,8.0,9.0,55,0.00,,,0.00,,2013-04-18 22:42:00,
2013-04-18 18:52:00,54.0,38.0,30.24,SE,145,8.0,9.0,55,0.00,,,0.00,,2013-04-18 22:52:00,
2013-04-18 19:04:00,53.0,39.0,30.23,SE,137,4.0,7.0,58,0.00,,,0.00,,2013-04-18 23:04:00,
2013-04-18 19:12:00,53.0,39.0,30.22,SSE,158,0.0,6.0,60,0.00,,,0.00,,2013-04-18 23:12:00,
2013-04-18 19:21:00,53.0,39.0,30.22,SSE,158,0.0,6.0,60,0.00,,,0.00,,2013-04-18 23:21:00,
2013-04-18 19:32:00,52.0,40.0,30.22,SE,135,7.0,9.0,63,0.00,,,0.00,,2013-04-18 23:32:00,
2013-04-18 19:42:00,52.0,40.0,30.23,SSE,158,0.0,9.0,63,0.00,,,0.00,,2013-04-18 23:42:00,
2013-04-18 19:52:00,52.0,40.0,30.23,SSE,158,0.0,9.0,63,0.00,,,0.00,,2013-04-18 23:52:00,
2013-04-18 20:01:00,51.0,40.0,30.22,SSE,158,4.0,10.0,65,0.00,,,0.00,,2013-04-19 00:01:00,
2013-04-18 20:12:00,51.0,40.0,30.22,SSE,158,0.0,7.0,65,0.00,,,0.00,,2013-04-19 00:12:00,
2013-04-18 20:22:00,51.0,40.0,30.22,SSE,158,0.0,7.0,65,0.00,,,0.00,,2013-04-19 00:22:00,
2013-04-18 20:32:00,51.0,40.0,30.22,ESE,113,0.0,6.0,66,0.00,,,0.00,,2013-04-19 00:32:00,
2013-04-18 20:42:00,51.0,40.0,30.22,SE,135,0.0,0.0,66,0.00,,,0.00,,2013-04-19 00:42:00,
2013-04-18 20:51:00,51.0,40.0,30.22,SE,135,0.0,0.0,66,0.00,,,0.00,,2013-04-19 00:51:00,
2013-04-18 21:01:00,51.0,40.0,30.21,SSE,158,4.0,8.0,67,0.00,,,0.00,,2013-04-19 01:01:00,
2013-04-18 21:11:00,51.0,40.0,30.21,SSE,158,4.0,8.0,67,0.00,,,0.00,,2013-04-19 01:11:00,
2013-04-18 21:21:00,51.0,41.0,30.21,SE,135,7.0,8.0,69,0.00,,,0.00,,2013-04-19 01:21:00,
2013-04-18 21:32:00,50.0,41.0,30.20,SE,135,8.0,9.0,70,0.00,,,0.00,,2013-04-19 01:32:00,
2013-04-18 21:42:00,50.0,41.0,30.20,SE,135,0.0,8.0,70,0.00,,,0.00,,2013-04-19 01:42:00,
2013-04-18 21:52:00,50.0,41.0,30.20,SE,135,0.0,8.0,70,0.00,,,0.00,,2013-04-19 01:52:00,
2013-04-18 22:02:00,51.0,42.0,30.19,SE,142,4.0,9.0,71,0.00,,,0.00,,2013-04-19 02:02:00,
2013-04-18 22:11:00,51.0,42.0,30.19,SE,142,4.0,9.0,71,0.00,,,0.00,,2013-04-19 02:11:00,
2013-04-18 22:21:00,51.0,42.0,30.18,SSE,158,4.0,7.0,71,0.00,,,0.00,,2013-04-19 02:21:00,
2013-04-18 22:32:00,51.0,43.0,30.18,SE,135,4.0,7.0,73,0.00,,,0.00,,2013-04-19 02:32:00,
2013-04-18 22:42:00,51.0,43.0,30.17,SSE,158,6.0,6.0,74,0.00,,,0.00,,2013-04-19 02:42:00,
2013-04-18 22:51:00,51.0,43.0,30.17,SSE,158,6.0,6.0,74,0.00,,,0.00,,2013-04-19 02:51:00,
2013-04-18 23:01:00,51.0,43.0,30.16,SSE,158,0.0,6.0,74,0.00,,,0.00,,2013-04-19 03:01:00,
2013-04-18 23:12:00,51.0,43.0,30.16,SSE,158,2.0,7.0,75,0.00,,,0.00,,2013-04-19 03:12:00,
2013-04-18 23:22:00,51.0,43.0,30.16,SSE,158,2.0,7.0,75,0.00,,,0.00,,2013-04-19 03:22:00,
2013-04-18 23:33:00,51.0,44.0,30.14,SSE,150,3.0,11.0,77,0.00,,,0.00,,2013-04-19 03:33:00,
2013-04-18 23:43:00,51.0,44.0,30.14,SSE,158,6.0,6.0,78,0.00,,,0.00,,2013-04-19 03:43:00,
2013-04-18 23:53:00,51.0,44.0,30.14,SSE,158,6.0,6.0,78,0.00,,,0.00,,2013-04-19 03:53:00,